GCATL EGKA-EGBO

Flight info

Callsign GCATL
Flight time 1h 39m
Altitude 2000
Route EGBO MID CPT EGBO
Aircraft C172/L-SG/L

Departure

Time 2026-05-04 19:09
Airport Brighton City Airport (EGKA)

Arrival

Time 2026-05-04 20:49
Airport Wolverhampton Halfpenny Green Airport (EGBO)
Time Latitude Longitude Altitude Speed Heading
2026-05-04 18:49 50.83496 -0.29020 2 ft 0 kts 256°
2026-05-04 19:03 50.83491 -0.29029 2 ft 2 kts 213°
2026-05-04 19:03 50.83478 -0.29004 2 ft 7 kts 70°
2026-05-04 19:04 50.83501 -0.28886 2 ft 14 kts 76°
2026-05-04 19:04 50.83576 -0.28814 1 ft 13 kts 341°
2026-05-04 19:04 50.83647 -0.28906 1 ft 13 kts 306°
2026-05-04 19:04 50.83699 -0.29024 1 ft 13 kts 304°
2026-05-04 19:05 50.83749 -0.29140 1 ft 12 kts 304°
2026-05-04 19:05 50.83795 -0.29245 2 ft 10 kts 305°
2026-05-04 19:05 50.83843 -0.29325 3 ft 9 kts 336°
2026-05-04 19:05 50.83905 -0.29338 4 ft 8 kts 337°
2026-05-04 19:06 50.83915 -0.29337 4 ft 0 kts 34°
2026-05-04 19:07 50.83916 -0.29337 4 ft 0 kts 33°
2026-05-04 19:07 50.83939 -0.29326 4 ft 4 kts
2026-05-04 19:07 50.83942 -0.29326 4 ft 0 kts
2026-05-04 19:07 50.83952 -0.29328 4 ft 5 kts 343°
2026-05-04 19:08 50.83985 -0.29419 5 ft 13 kts 288°
2026-05-04 19:08 50.83907 -0.29508 4 ft 17 kts 201°
2026-05-04 19:08 50.83680 -0.29653 2 ft 57 kts 200°
2026-05-04 19:08 50.83295 -0.29936 146 ft 61 kts 208°
2026-05-04 19:09 50.82912 -0.30310 270 ft 68 kts 215°
2026-05-04 19:09 50.82507 -0.30783 402 ft 76 kts 219°
2026-05-04 19:09 50.82035 -0.31172 542 ft 81 kts 174°
2026-05-04 19:09 50.81620 -0.30684 706 ft 77 kts 110°
2026-05-04 19:10 50.81370 -0.29924 843 ft 83 kts 117°
2026-05-04 19:10 50.81288 -0.29011 938 ft 85 kts 68°
2026-05-04 19:10 50.81748 -0.28478 1054 ft 89 kts 12°
2026-05-04 19:10 50.82370 -0.28251 1106 ft 95 kts 22°
2026-05-04 19:11 50.82991 -0.28070 1268 ft 89 kts 13°
2026-05-04 19:11 50.83631 -0.27913 1364 ft 90 kts 13°
2026-05-04 19:11 50.84248 -0.27721 1453 ft 92 kts 17°
2026-05-04 19:11 50.84879 -0.27939 1540 ft 101 kts 328°
2026-05-04 19:12 50.85281 -0.28874 1634 ft 105 kts 307°
2026-05-04 19:12 50.86021 -0.30805 1869 ft 104 kts 313°
2026-05-04 19:12 50.86443 -0.31757 1932 ft 107 kts 315°
2026-05-04 19:13 50.86912 -0.32693 1974 ft 109 kts 317°
2026-05-04 19:13 50.87417 -0.33609 2005 ft 109 kts 320°
2026-05-04 19:13 50.87927 -0.34530 1981 ft 111 kts 320°
2026-05-04 19:13 50.88451 -0.35401 1970 ft 108 kts 324°
2026-05-04 19:14 50.88991 -0.36222 2000 ft 105 kts 324°
2026-05-04 19:14 50.89484 -0.37087 1994 ft 107 kts 317°
2026-05-04 19:14 50.89923 -0.38049 2008 ft 108 kts 311°
2026-05-04 19:14 50.90327 -0.39060 1993 ft 110 kts 310°
2026-05-04 19:15 50.90760 -0.40034 1979 ft 106 kts 320°
2026-05-04 19:15 50.91243 -0.40903 1989 ft 104 kts 322°
2026-05-04 19:15 50.91720 -0.41761 2004 ft 102 kts 320°
2026-05-04 19:15 50.92188 -0.42603 2006 ft 101 kts 321°
2026-05-04 19:16 50.92686 -0.43402 1994 ft 102 kts 324°
2026-05-04 19:16 50.93150 -0.44247 2000 ft 103 kts 319°
2026-05-04 19:16 50.93635 -0.45094 1984 ft 103 kts 322°
2026-05-04 19:16 50.94132 -0.45886 1979 ft 102 kts 325°
2026-05-04 19:17 50.94659 -0.46638 1968 ft 101 kts 327°
2026-05-04 19:17 50.95163 -0.47425 1976 ft 102 kts 317°
2026-05-04 19:17 50.95597 -0.48341 1921 ft 107 kts 318°
2026-05-04 19:17 50.96103 -0.49180 1902 ft 104 kts 323°
2026-05-04 19:18 50.96647 -0.49944 1850 ft 103 kts 335°
2026-05-04 19:18 50.97229 -0.50569 1882 ft 99 kts 334°
2026-05-04 19:18 50.97763 -0.51215 1932 ft 96 kts 330°
2026-05-04 19:18 50.98275 -0.51892 1978 ft 95 kts 328°
2026-05-04 19:19 50.98777 -0.52591 2004 ft 97 kts 327°
2026-05-04 19:19 50.99282 -0.53314 2009 ft 101 kts 326°
2026-05-04 19:19 50.99813 -0.54090 2010 ft 105 kts 325°
2026-05-04 19:19 51.00351 -0.54888 2008 ft 107 kts 325°
2026-05-04 19:20 51.00889 -0.55691 2009 ft 107 kts 324°
2026-05-04 19:20 51.01433 -0.56507 2010 ft 107 kts 324°
2026-05-04 19:20 51.01978 -0.57327 2008 ft 108 kts 325°
2026-05-04 19:20 51.02522 -0.58145 2010 ft 108 kts 325°
2026-05-04 19:21 51.03070 -0.58973 2009 ft 108 kts 325°
2026-05-04 19:21 51.03612 -0.59790 2012 ft 108 kts 325°
2026-05-04 19:21 51.04161 -0.60619 2011 ft 108 kts 325°
2026-05-04 19:21 51.04704 -0.61438 2011 ft 108 kts 325°
2026-05-04 19:22 51.05192 -0.62360 2006 ft 115 kts 300°
2026-05-04 19:22 51.05306 -0.63637 2012 ft 120 kts 277°
2026-05-04 19:22 51.05278 -0.64975 2009 ft 121 kts 273°
2026-05-04 19:22 51.05224 -0.66308 2012 ft 120 kts 271°
2026-05-04 19:23 51.05164 -0.67639 2015 ft 120 kts 271°
2026-05-04 19:23 51.05102 -0.68964 2009 ft 120 kts 271°
2026-05-04 19:23 51.05037 -0.70283 1997 ft 119 kts 272°
2026-05-04 19:23 51.04972 -0.71584 2010 ft 118 kts 271°
2026-05-04 19:24 51.04910 -0.72889 2008 ft 119 kts 271°
2026-05-04 19:24 51.04844 -0.74202 2010 ft 119 kts 272°
2026-05-04 19:24 51.04779 -0.75526 2015 ft 121 kts 269°
2026-05-04 19:24 51.04708 -0.76864 2012 ft 121 kts 270°
2026-05-04 19:25 51.04638 -0.78208 2010 ft 121 kts 270°
2026-05-04 19:25 51.04570 -0.79532 2012 ft 121 kts 270°
2026-05-04 19:25 51.04504 -0.80856 2012 ft 120 kts 270°
2026-05-04 19:25 51.04438 -0.82178 2010 ft 119 kts 270°
2026-05-04 19:26 51.04371 -0.83495 2010 ft 118 kts 271°
2026-05-04 19:26 51.04306 -0.84804 2018 ft 119 kts 270°
2026-05-04 19:26 51.04240 -0.86107 2019 ft 120 kts 270°
2026-05-04 19:26 51.04174 -0.87432 2019 ft 120 kts 271°
2026-05-04 19:27 51.04108 -0.88753 2016 ft 121 kts 271°
2026-05-04 19:27 51.04040 -0.90096 2016 ft 121 kts 270°
2026-05-04 19:27 51.03973 -0.91414 2016 ft 121 kts 270°
2026-05-04 19:27 51.03905 -0.92752 2026 ft 121 kts 270°
2026-05-04 19:28 51.03838 -0.94077 2023 ft 122 kts 270°
2026-05-04 19:28 51.03769 -0.95428 2022 ft 121 kts 270°
2026-05-04 19:28 51.03701 -0.96753 2017 ft 121 kts 270°
2026-05-04 19:28 51.03632 -0.98086 2019 ft 120 kts 271°
2026-05-04 19:29 51.03565 -0.99403 2021 ft 120 kts 271°
2026-05-04 19:29 51.03498 -1.00731 2016 ft 121 kts 271°
2026-05-04 19:29 51.03430 -1.02068 2020 ft 120 kts 271°
2026-05-04 19:29 51.03365 -1.03377 2018 ft 121 kts 271°
2026-05-04 19:30 51.03297 -1.04714 2013 ft 120 kts 271°
2026-05-04 19:30 51.03242 -1.06036 2010 ft 118 kts 279°
2026-05-04 19:30 51.03576 -1.07134 2009 ft 107 kts 326°
2026-05-04 19:30 51.04218 -1.07616 2010 ft 101 kts 351°
2026-05-04 19:31 51.04894 -1.07892 2002 ft 101 kts 354°
2026-05-04 19:31 51.05577 -1.08144 2002 ft 101 kts 354°
2026-05-04 19:31 51.06266 -1.08390 1997 ft 100 kts 355°
2026-05-04 19:31 51.06951 -1.08627 2008 ft 100 kts 354°
2026-05-04 19:32 51.07630 -1.08859 2011 ft 100 kts 354°
2026-05-04 19:32 51.08311 -1.09087 2008 ft 101 kts 354°
2026-05-04 19:32 51.09001 -1.09317 2008 ft 101 kts 354°
2026-05-04 19:32 51.09688 -1.09543 2012 ft 100 kts 354°
2026-05-04 19:33 51.10375 -1.09767 2015 ft 101 kts 355°
2026-05-04 19:33 51.11068 -1.09992 2016 ft 101 kts 355°
2026-05-04 19:33 51.11764 -1.10219 2011 ft 101 kts 355°
2026-05-04 19:33 51.12451 -1.10442 2008 ft 101 kts 355°
2026-05-04 19:34 51.13142 -1.10744 2010 ft 102 kts 349°
2026-05-04 19:34 51.13811 -1.11109 2011 ft 103 kts 348°
2026-05-04 19:34 51.14491 -1.11481 2012 ft 103 kts 348°
2026-05-04 19:34 51.15165 -1.11852 2010 ft 103 kts 348°
2026-05-04 19:35 51.15848 -1.12230 2011 ft 103 kts 347°
2026-05-04 19:35 51.16525 -1.12598 2016 ft 103 kts 348°
2026-05-04 19:35 51.17206 -1.12969 2013 ft 103 kts 348°
2026-05-04 19:35 51.17882 -1.13342 2014 ft 103 kts 348°
2026-05-04 19:36 51.18565 -1.13722 2017 ft 103 kts 348°
2026-05-04 19:36 51.19244 -1.14096 2010 ft 104 kts 348°
2026-05-04 19:36 51.19923 -1.14466 2016 ft 103 kts 348°
2026-05-04 19:36 51.20612 -1.14842 2013 ft 103 kts 348°
2026-05-04 19:37 51.21289 -1.15207 2014 ft 103 kts 347°
2026-05-04 19:37 51.21969 -1.15571 2015 ft 103 kts 348°
2026-05-04 19:37 51.22648 -1.15934 2015 ft 103 kts 348°
2026-05-04 19:37 51.23335 -1.16301 2015 ft 103 kts 348°
2026-05-04 19:38 51.24011 -1.16661 2016 ft 103 kts 348°
2026-05-04 19:38 51.24692 -1.17023 2016 ft 103 kts 348°
2026-05-04 19:38 51.25372 -1.17386 2014 ft 103 kts 348°
2026-05-04 19:38 51.26058 -1.17503 2012 ft 97 kts 17°
2026-05-04 19:39 51.26717 -1.17294 2009 ft 100 kts
2026-05-04 19:39 51.27403 -1.17566 2012 ft 102 kts 349°
2026-05-04 19:39 51.28079 -1.17927 2013 ft 103 kts 348°
2026-05-04 19:39 51.28759 -1.18298 2015 ft 103 kts 348°
2026-05-04 19:40 51.29443 -1.18669 2015 ft 104 kts 348°
2026-05-04 19:40 51.30136 -1.19045 2019 ft 105 kts 348°
2026-05-04 19:40 51.30828 -1.19421 2010 ft 105 kts 348°
2026-05-04 19:40 51.31515 -1.19793 2016 ft 104 kts 348°
2026-05-04 19:41 51.32196 -1.20162 2017 ft 104 kts 348°
2026-05-04 19:41 51.32884 -1.20536 2017 ft 103 kts 348°
2026-05-04 19:41 51.33567 -1.20892 2017 ft 103 kts 351°
2026-05-04 19:41 51.34261 -1.21155 2014 ft 102 kts 356°
2026-05-04 19:42 51.34963 -1.21199 2015 ft 100 kts
2026-05-04 19:42 51.35659 -1.21186 2015 ft 100 kts
2026-05-04 19:42 51.36355 -1.21169 2013 ft 100 kts
2026-05-04 19:42 51.37046 -1.21153 2010 ft 100 kts
2026-05-04 19:43 51.37740 -1.21137 2012 ft 100 kts
2026-05-04 19:43 51.38441 -1.21120 2018 ft 100 kts
2026-05-04 19:43 51.39131 -1.21104 2014 ft 100 kts
2026-05-04 19:43 51.39831 -1.21092 2016 ft 100 kts
2026-05-04 19:44 51.40530 -1.21076 2014 ft 99 kts
2026-05-04 19:44 51.41217 -1.21061 2013 ft 99 kts
2026-05-04 19:44 51.41913 -1.21042 2016 ft 99 kts
2026-05-04 19:44 51.42595 -1.21018 2014 ft 99 kts
2026-05-04 19:45 51.43285 -1.21037 2018 ft 100 kts
2026-05-04 19:45 51.43988 -1.21114 2015 ft 100 kts
2026-05-04 19:45 51.44682 -1.21226 2015 ft 100 kts 358°
2026-05-04 19:45 51.45373 -1.21365 2014 ft 100 kts 358°
2026-05-04 19:46 51.46067 -1.21525 2015 ft 101 kts 357°
2026-05-04 19:46 51.46761 -1.21699 2010 ft 101 kts 356°
2026-05-04 19:46 51.47458 -1.21887 2014 ft 101 kts 355°
2026-05-04 19:46 51.48151 -1.22083 2014 ft 101 kts 355°
2026-05-04 19:47 51.48847 -1.22196 2018 ft 99 kts
2026-05-04 19:47 51.49525 -1.22063 2021 ft 98 kts 12°
2026-05-04 19:47 51.50200 -1.21907 2024 ft 98 kts 11°
2026-05-04 19:47 51.50879 -1.21750 2024 ft 99 kts 11°
2026-05-04 19:48 51.51569 -1.21592 2023 ft 99 kts 11°
2026-05-04 19:48 51.52246 -1.21438 2021 ft 99 kts 11°
2026-05-04 19:48 51.52932 -1.21283 2025 ft 99 kts 11°
2026-05-04 19:48 51.53608 -1.21130 2029 ft 99 kts 12°
2026-05-04 19:49 51.54301 -1.20973 2026 ft 100 kts 12°
2026-05-04 19:49 51.54985 -1.20819 2024 ft 99 kts 12°
2026-05-04 19:49 51.55671 -1.20665 2025 ft 99 kts 12°
2026-05-04 19:49 51.56353 -1.20512 2028 ft 98 kts 12°
2026-05-04 19:50 51.57025 -1.20362 2028 ft 98 kts 12°
2026-05-04 19:50 51.57709 -1.20209 2027 ft 98 kts 12°
2026-05-04 19:50 51.58379 -1.20058 2024 ft 98 kts 11°
2026-05-04 19:50 51.59062 -1.19905 2024 ft 98 kts 11°
2026-05-04 19:51 51.59735 -1.19754 2024 ft 98 kts 11°
2026-05-04 19:51 51.60405 -1.19605 2025 ft 97 kts 11°
2026-05-04 19:51 51.61079 -1.19454 2027 ft 98 kts 11°
2026-05-04 19:51 51.61755 -1.19303 2030 ft 98 kts 11°
2026-05-04 19:52 51.62426 -1.19153 2026 ft 98 kts 11°
2026-05-04 19:52 51.63101 -1.19002 2027 ft 98 kts 11°
2026-05-04 19:52 51.63782 -1.18850 2027 ft 98 kts 11°
2026-05-04 19:52 51.64462 -1.18697 2026 ft 98 kts 11°
2026-05-04 19:53 51.65137 -1.18546 2026 ft 98 kts 11°
2026-05-04 19:53 51.65818 -1.18394 2026 ft 98 kts 11°
2026-05-04 19:53 51.66498 -1.18241 2027 ft 98 kts 11°
2026-05-04 19:53 51.67180 -1.18087 1987 ft 101 kts 11°
2026-05-04 19:54 51.67876 -1.17930 1976 ft 100 kts 11°
2026-05-04 19:54 51.68559 -1.17786 1976 ft 99 kts
2026-05-04 19:54 51.69250 -1.17645 1978 ft 99 kts
2026-05-04 19:54 51.69931 -1.17504 1979 ft 99 kts 10°
2026-05-04 19:55 51.70606 -1.17362 1979 ft 98 kts 10°
2026-05-04 19:55 51.71286 -1.17217 1976 ft 98 kts 10°
2026-05-04 19:55 51.71967 -1.17071 1975 ft 98 kts 10°
2026-05-04 19:55 51.72646 -1.16923 1971 ft 98 kts 11°
2026-05-04 19:56 51.73313 -1.16777 1977 ft 98 kts 11°
2026-05-04 19:56 51.73991 -1.16624 1971 ft 98 kts 11°
2026-05-04 19:56 51.74676 -1.16473 1973 ft 98 kts 11°
2026-05-04 19:56 51.75352 -1.16322 1980 ft 99 kts 11°
2026-05-04 19:57 51.76038 -1.16170 1978 ft 99 kts 11°
2026-05-04 19:57 51.76721 -1.16016 1975 ft 99 kts 11°
2026-05-04 19:57 51.77407 -1.15863 1979 ft 99 kts 10°
2026-05-04 19:57 51.78085 -1.15707 1979 ft 99 kts 11°
2026-05-04 19:58 51.78776 -1.15537 1981 ft 99 kts 12°
2026-05-04 19:58 51.79456 -1.15366 1982 ft 99 kts 12°
2026-05-04 19:58 51.80143 -1.15197 1980 ft 99 kts 11°
2026-05-04 19:58 51.80824 -1.15034 1980 ft 99 kts 11°
2026-05-04 19:59 51.81513 -1.14870 1980 ft 100 kts 11°
2026-05-04 19:59 51.82206 -1.14709 1979 ft 99 kts 11°
2026-05-04 19:59 51.82889 -1.14550 1979 ft 99 kts 11°
2026-05-04 19:59 51.83572 -1.14393 1979 ft 99 kts 12°
2026-05-04 20:00 51.84258 -1.14235 1979 ft 99 kts 12°
2026-05-04 20:00 51.84943 -1.14078 1980 ft 99 kts 11°
2026-05-04 20:00 51.85622 -1.13922 1980 ft 99 kts 11°
2026-05-04 20:00 51.86303 -1.13766 1979 ft 99 kts 11°
2026-05-04 20:01 51.86988 -1.13610 1980 ft 99 kts 11°
2026-05-04 20:01 51.87678 -1.13453 1980 ft 99 kts 11°
2026-05-04 20:01 51.88351 -1.13301 1981 ft 99 kts 11°
2026-05-04 20:01 51.89038 -1.13145 1981 ft 99 kts 10°
2026-05-04 20:02 51.89723 -1.12989 1982 ft 99 kts 10°
2026-05-04 20:02 51.90409 -1.12834 1982 ft 99 kts 10°
2026-05-04 20:02 51.91090 -1.12680 1982 ft 99 kts 11°
2026-05-04 20:02 51.91774 -1.12525 1981 ft 99 kts 11°
2026-05-04 20:03 51.92456 -1.12370 1980 ft 99 kts 11°
2026-05-04 20:03 51.93144 -1.12214 1980 ft 99 kts 11°
2026-05-04 20:03 51.93830 -1.12058 1979 ft 99 kts 11°
2026-05-04 20:03 51.94512 -1.11904 1979 ft 99 kts 11°
2026-05-04 20:04 51.95192 -1.11749 1980 ft 99 kts 11°
2026-05-04 20:04 51.95874 -1.11595 1981 ft 99 kts 11°
2026-05-04 20:04 51.96563 -1.11438 1980 ft 99 kts 11°
2026-05-04 20:04 51.97243 -1.11283 1982 ft 99 kts 11°
2026-05-04 20:05 51.97929 -1.11128 1983 ft 99 kts 10°
2026-05-04 20:05 51.98614 -1.10974 1981 ft 100 kts 10°
2026-05-04 20:05 51.99301 -1.10818 1981 ft 100 kts 10°
2026-05-04 20:05 51.99996 -1.10661 1981 ft 100 kts 10°
2026-05-04 20:06 52.00679 -1.10507 1981 ft 100 kts 10°
2026-05-04 20:06 52.01370 -1.10350 1982 ft 100 kts 10°
2026-05-04 20:06 52.02057 -1.10195 1980 ft 100 kts 11°
2026-05-04 20:06 52.02742 -1.10040 1981 ft 99 kts 11°
2026-05-04 20:07 52.03435 -1.09984 1974 ft 102 kts 351°
2026-05-04 20:07 52.04001 -1.10678 1976 ft 109 kts 308°
2026-05-04 20:07 52.04261 -1.11857 1980 ft 112 kts 290°
2026-05-04 20:07 52.04437 -1.13103 1982 ft 112 kts 288°
2026-05-04 20:08 52.04597 -1.14332 1982 ft 112 kts 287°
2026-05-04 20:08 52.04755 -1.15585 1982 ft 112 kts 287°
2026-05-04 20:08 52.04907 -1.16819 1983 ft 112 kts 287°
2026-05-04 20:08 52.05059 -1.18060 1949 ft 114 kts 286°
2026-05-04 20:09 52.05215 -1.19350 1890 ft 117 kts 287°
2026-05-04 20:09 52.05371 -1.20652 1817 ft 119 kts 287°
2026-05-04 20:09 52.05529 -1.21970 1786 ft 118 kts 286°
2026-05-04 20:09 52.05680 -1.23264 1771 ft 117 kts 287°
2026-05-04 20:10 52.05835 -1.24581 1721 ft 119 kts 286°
2026-05-04 20:10 52.05991 -1.25918 1666 ft 120 kts 286°
2026-05-04 20:10 52.06146 -1.27248 1618 ft 120 kts 286°
2026-05-04 20:10 52.06298 -1.28566 1563 ft 119 kts 286°
2026-05-04 20:11 52.06453 -1.29901 1506 ft 119 kts 286°
2026-05-04 20:11 52.06604 -1.31209 1482 ft 117 kts 285°
2026-05-04 20:11 52.06752 -1.32485 1481 ft 115 kts 285°
2026-05-04 20:11 52.06897 -1.33761 1482 ft 114 kts 285°
2026-05-04 20:12 52.07041 -1.35019 1482 ft 113 kts 285°
2026-05-04 20:12 52.07184 -1.36273 1481 ft 113 kts 285°
2026-05-04 20:12 52.07326 -1.37538 1485 ft 113 kts 285°
2026-05-04 20:12 52.07468 -1.38785 1487 ft 113 kts 285°
2026-05-04 20:13 52.07610 -1.40040 1485 ft 113 kts 286°
2026-05-04 20:13 52.07754 -1.41304 1484 ft 113 kts 286°
2026-05-04 20:13 52.07896 -1.42551 1483 ft 113 kts 285°
2026-05-04 20:13 52.08041 -1.43813 1483 ft 113 kts 285°
2026-05-04 20:14 52.08183 -1.45070 1480 ft 112 kts 286°
2026-05-04 20:14 52.08325 -1.46320 1521 ft 113 kts 285°
2026-05-04 20:14 52.08434 -1.47590 1595 ft 116 kts 278°
2026-05-04 20:14 52.08454 -1.48900 1666 ft 117 kts 275°
2026-05-04 20:15 52.08464 -1.50237 1731 ft 118 kts 276°
2026-05-04 20:15 52.08475 -1.51574 1813 ft 119 kts 276°
2026-05-04 20:15 52.08484 -1.52921 1887 ft 119 kts 276°
2026-05-04 20:15 52.08495 -1.54262 1959 ft 119 kts 276°
2026-05-04 20:16 52.08508 -1.55636 1979 ft 123 kts 276°
2026-05-04 20:16 52.08519 -1.56997 2057 ft 121 kts 275°
2026-05-04 20:16 52.08531 -1.58355 2125 ft 120 kts 276°
2026-05-04 20:16 52.08541 -1.59708 2208 ft 119 kts 276°
2026-05-04 20:17 52.08552 -1.61051 2289 ft 118 kts 277°
2026-05-04 20:17 52.08564 -1.62388 2365 ft 118 kts 276°
2026-05-04 20:17 52.08575 -1.63729 2440 ft 118 kts 276°
2026-05-04 20:17 52.08586 -1.65058 2475 ft 116 kts 275°
2026-05-04 20:18 52.08598 -1.66362 2479 ft 114 kts 275°
2026-05-04 20:18 52.08609 -1.67646 2485 ft 114 kts 275°
2026-05-04 20:18 52.08619 -1.68923 2489 ft 114 kts 275°
2026-05-04 20:18 52.08630 -1.70213 2495 ft 114 kts 275°
2026-05-04 20:19 52.08640 -1.71517 2496 ft 115 kts 275°
2026-05-04 20:19 52.08650 -1.72819 2504 ft 115 kts 276°
2026-05-04 20:19 52.08658 -1.74124 2503 ft 116 kts 275°
2026-05-04 20:19 52.08666 -1.75415 2505 ft 115 kts 276°
2026-05-04 20:20 52.08676 -1.76715 2500 ft 114 kts 276°
2026-05-04 20:20 52.08683 -1.78022 2494 ft 114 kts 276°
2026-05-04 20:20 52.08692 -1.79295 2494 ft 113 kts 276°
2026-05-04 20:20 52.08704 -1.80576 2493 ft 113 kts 276°
2026-05-04 20:21 52.08711 -1.81858 2499 ft 113 kts 275°
2026-05-04 20:21 52.08719 -1.83134 2501 ft 113 kts 275°
2026-05-04 20:21 52.08734 -1.85692 2489 ft 113 kts 275°
2026-05-04 20:22 52.08739 -1.86983 2489 ft 114 kts 274°
2026-05-04 20:22 52.08746 -1.88253 2489 ft 113 kts 276°
2026-05-04 20:22 52.08752 -1.89532 2496 ft 114 kts 276°
2026-05-04 20:22 52.08758 -1.90825 2499 ft 115 kts 275°
2026-05-04 20:23 52.08773 -1.92126 2490 ft 115 kts 278°
2026-05-04 20:23 52.08780 -1.93416 2513 ft 115 kts 275°
2026-05-04 20:23 52.08791 -1.94721 2500 ft 114 kts 276°
2026-05-04 20:23 52.08797 -1.96023 2502 ft 114 kts 275°
2026-05-04 20:24 52.08805 -1.97311 2499 ft 113 kts 276°
2026-05-04 20:24 52.08810 -1.98581 2507 ft 113 kts 274°
2026-05-04 20:24 52.08816 -1.99872 2497 ft 113 kts 276°
2026-05-04 20:24 52.08822 -2.01151 2491 ft 113 kts 275°
2026-05-04 20:25 52.08831 -2.02433 2480 ft 113 kts 276°
2026-05-04 20:25 52.08833 -2.03704 2502 ft 112 kts 277°
2026-05-04 20:25 52.08841 -2.04980 2491 ft 113 kts 276°
2026-05-04 20:25 52.08847 -2.06264 2492 ft 115 kts 272°
2026-05-04 20:26 52.08850 -2.07565 2498 ft 115 kts 274°
2026-05-04 20:26 52.08855 -2.08858 2500 ft 115 kts 276°
2026-05-04 20:26 52.08861 -2.10150 2490 ft 115 kts 277°
2026-05-04 20:26 52.08867 -2.11448 2501 ft 115 kts 275°
2026-05-04 20:27 52.08872 -2.12743 2494 ft 114 kts 275°
2026-05-04 20:27 52.08878 -2.14042 2501 ft 113 kts 275°
2026-05-04 20:27 52.08881 -2.15320 2505 ft 115 kts 275°
2026-05-04 20:27 52.08889 -2.16630 2504 ft 115 kts 274°
2026-05-04 20:28 52.08892 -2.17922 2501 ft 115 kts 276°
2026-05-04 20:28 52.08897 -2.19232 2487 ft 115 kts 275°
2026-05-04 20:28 52.08901 -2.20523 2496 ft 114 kts 275°
2026-05-04 20:28 52.08904 -2.21817 2499 ft 115 kts 275°
2026-05-04 20:29 52.08907 -2.23120 2503 ft 115 kts 275°
2026-05-04 20:29 52.08911 -2.24416 2497 ft 115 kts 275°
2026-05-04 20:29 52.08916 -2.25718 2495 ft 114 kts 276°
2026-05-04 20:29 52.08918 -2.26995 2493 ft 114 kts 276°
2026-05-04 20:30 52.08922 -2.28278 2495 ft 113 kts 275°
2026-05-04 20:30 52.08926 -2.29575 2500 ft 113 kts 275°
2026-05-04 20:30 52.08928 -2.30850 2496 ft 114 kts 275°
2026-05-04 20:30 52.09055 -2.32089 2499 ft 109 kts 305°
2026-05-04 20:31 52.09620 -2.32797 2512 ft 101 kts 346°
2026-05-04 20:31 52.10326 -2.32919 2493 ft 102 kts
2026-05-04 20:31 52.11037 -2.32888 2497 ft 104 kts
2026-05-04 20:31 52.11769 -2.32810 2506 ft 103 kts
2026-05-04 20:32 52.12468 -2.32639 2474 ft 102 kts 14°
2026-05-04 20:32 52.13169 -2.32370 2428 ft 104 kts 16°
2026-05-04 20:32 52.13876 -2.32091 2377 ft 103 kts 17°
2026-05-04 20:32 52.14582 -2.31818 2316 ft 104 kts 15°
2026-05-04 20:33 52.15289 -2.31542 2259 ft 104 kts 15°
2026-05-04 20:33 52.15996 -2.31313 2210 ft 104 kts 13°
2026-05-04 20:33 52.16714 -2.31101 2164 ft 104 kts 13°
2026-05-04 20:33 52.17422 -2.30891 2098 ft 102 kts 14°
2026-05-04 20:34 52.18108 -2.30689 2031 ft 100 kts
2026-05-04 20:34 52.18786 -2.30474 2003 ft 96 kts 13°
2026-05-04 20:34 52.19433 -2.30277 2001 ft 93 kts 13°
2026-05-04 20:34 52.20064 -2.30091 1999 ft 92 kts 14°
2026-05-04 20:35 52.20708 -2.29905 1943 ft 94 kts 14°
2026-05-04 20:35 52.21349 -2.29713 1911 ft 94 kts 13°
2026-05-04 20:35 52.21999 -2.29510 1866 ft 95 kts 13°
2026-05-04 20:35 52.22652 -2.29314 1839 ft 95 kts 13°
2026-05-04 20:36 52.23304 -2.29126 1779 ft 95 kts 13°
2026-05-04 20:36 52.23957 -2.28926 1726 ft 95 kts 13°
2026-05-04 20:36 52.24602 -2.28725 1694 ft 94 kts 12°
2026-05-04 20:36 52.25236 -2.28526 1693 ft 91 kts 13°
2026-05-04 20:37 52.25854 -2.28334 1689 ft 90 kts 12°
2026-05-04 20:37 52.26462 -2.28147 1689 ft 89 kts 12°
2026-05-04 20:37 52.27075 -2.27962 1693 ft 89 kts 13°
2026-05-04 20:37 52.27685 -2.27783 1694 ft 89 kts 13°
2026-05-04 20:38 52.28291 -2.27605 1694 ft 89 kts 12°
2026-05-04 20:38 52.28905 -2.27427 1697 ft 89 kts 12°
2026-05-04 20:38 52.29525 -2.27246 1696 ft 89 kts 13°
2026-05-04 20:38 52.30138 -2.27070 1690 ft 89 kts 12°
2026-05-04 20:39 52.30740 -2.26897 1687 ft 88 kts 13°
2026-05-04 20:39 52.31337 -2.26722 1701 ft 88 kts 10°
2026-05-04 20:39 52.31942 -2.26525 1708 ft 89 kts 12°
2026-05-04 20:39 52.32560 -2.26338 1679 ft 91 kts 12°
2026-05-04 20:40 52.33190 -2.26130 1633 ft 93 kts 13°
2026-05-04 20:40 52.33830 -2.25917 1580 ft 95 kts 12°
2026-05-04 20:40 52.34485 -2.25701 1528 ft 96 kts 12°
2026-05-04 20:40 52.35138 -2.25485 1497 ft 95 kts 12°
2026-05-04 20:41 52.35775 -2.25280 1492 ft 92 kts 12°
2026-05-04 20:41 52.36410 -2.25095 1491 ft 91 kts 10°
2026-05-04 20:41 52.37039 -2.24983 1491 ft 90 kts
2026-05-04 20:41 52.37664 -2.24880 1489 ft 90 kts
2026-05-04 20:42 52.38281 -2.24775 1494 ft 90 kts
2026-05-04 20:42 52.38904 -2.24673 1491 ft 89 kts
2026-05-04 20:42 52.39526 -2.24563 1491 ft 89 kts
2026-05-04 20:42 52.40143 -2.24420 1472 ft 91 kts 12°
2026-05-04 20:43 52.40768 -2.24195 1450 ft 90 kts 15°
2026-05-04 20:43 52.41357 -2.23928 1459 ft 87 kts 18°
2026-05-04 20:43 52.41927 -2.23619 1463 ft 86 kts 19°
2026-05-04 20:43 52.42512 -2.23396 1462 ft 84 kts 12°
2026-05-04 20:44 52.43081 -2.23230 1459 ft 83 kts 12°
2026-05-04 20:44 52.43657 -2.23068 1438 ft 84 kts 11°
2026-05-04 20:44 52.44234 -2.22897 1426 ft 83 kts 12°
2026-05-04 20:44 52.44805 -2.22716 1417 ft 82 kts 13°
2026-05-04 20:45 52.45332 -2.22552 1424 ft 73 kts 11°
2026-05-04 20:45 52.45824 -2.22413 1384 ft 70 kts 11°
2026-05-04 20:45 52.46294 -2.22275 1330 ft 67 kts 12°
2026-05-04 20:45 52.46727 -2.22394 1257 ft 63 kts 345°
2026-05-04 20:46 52.47142 -2.22660 1145 ft 65 kts 340°
2026-05-04 20:46 52.47541 -2.22958 1060 ft 62 kts 340°
2026-05-04 20:46 52.47929 -2.23208 978 ft 56 kts 340°
2026-05-04 20:46 52.48293 -2.23480 904 ft 57 kts 339°
2026-05-04 20:47 52.48655 -2.23738 846 ft 57 kts 340°
2026-05-04 20:47 52.49027 -2.23992 788 ft 57 kts 340°
2026-05-04 20:47 52.49399 -2.24252 720 ft 58 kts 339°
2026-05-04 20:47 52.49764 -2.24515 654 ft 57 kts 339°
2026-05-04 20:48 52.50126 -2.24781 588 ft 56 kts 337°
2026-05-04 20:48 52.50482 -2.25038 516 ft 56 kts 337°
2026-05-04 20:48 52.50837 -2.25298 444 ft 56 kts 339°
2026-05-04 20:48 52.51199 -2.25565 364 ft 57 kts 339°
2026-05-04 20:49 52.51557 -2.25826 294 ft 52 kts 340°
2026-05-04 20:49 52.51820 -2.26012 279 ft 31 kts 339°
2026-05-04 20:49 52.51979 -2.26132 279 ft 21 kts 334°
2026-05-04 20:49 52.52038 -2.26249 278 ft 10 kts 168°
2026-05-04 20:50 52.52013 -2.26246 278 ft 10 kts 189°
2026-05-04 20:50 52.51887 -2.26364 275 ft 25 kts 217°
2026-05-04 20:50 52.51745 -2.26541 272 ft 25 kts 217°
2026-05-04 20:50 52.51608 -2.26691 269 ft 19 kts 215°
2026-05-04 20:51 52.51547 -2.26707 269 ft 9 kts 105°
2026-05-04 20:51 52.51539 -2.26599 271 ft 10 kts 97°
2026-05-04 20:51 52.51531 -2.26492 273 ft 8 kts 96°
2026-05-04 20:51 52.51526 -2.26396 275 ft 7 kts 95°
2026-05-04 20:52 52.51520 -2.26312 277 ft 7 kts 96°
2026-05-04 20:52 52.51515 -2.26235 278 ft 6 kts 99°
2026-05-04 20:52 52.51491 -2.26171 279 ft 6 kts 126°
2026-05-04 20:52 52.51462 -2.26105 280 ft 7 kts 125°
2026-05-04 20:53 52.51414 -2.26090 281 ft 7 kts 160°
2026-05-04 20:53 52.51390 -2.26056 282 ft 0 kts 54°